FLI411 EGKK-EKVG

Flight info

Callsign FLI411
Flight time N/A
Altitude 28000
Route LAM L10 BPK UN601 RIBEL DCT TLA DCT NALAN/M070F280 DCT ROBUR
Aircraft RJ1H/M-SDFGIRWY/LB1

Departure

Time 2026-05-05 08:55
Airport London Gatwick Airport (EGKK)

Arrival

Time N/A
Airport Vágar Airport (EKVG)
Time Latitude Longitude Altitude Speed Heading
2026-05-05 08:24 51.15376 -0.17494 210 ft 0 kts 347°
2026-05-05 08:42 51.15373 -0.17493 212 ft 3 kts 347°
2026-05-05 08:42 51.15351 -0.17485 203 ft 3 kts 347°
2026-05-05 08:42 51.15328 -0.17477 203 ft 3 kts 347°
2026-05-05 08:43 51.15310 -0.17471 214 ft 3 kts 347°
2026-05-05 08:43 51.15303 -0.17469 213 ft 0 kts 347°
2026-05-05 08:47 51.15304 -0.17469 213 ft 0 kts 347°
2026-05-05 08:47 51.15311 -0.17483 206 ft 4 kts 282°
2026-05-05 08:48 51.15292 -0.17540 205 ft 7 kts 242°
2026-05-05 08:48 51.15278 -0.17612 203 ft 7 kts 257°
2026-05-05 08:48 51.15267 -0.17690 203 ft 7 kts 259°
2026-05-05 08:48 51.15256 -0.17775 209 ft 9 kts 257°
2026-05-05 08:49 51.15241 -0.17882 207 ft 12 kts 258°
2026-05-05 08:49 51.15221 -0.18026 203 ft 15 kts 258°
2026-05-05 08:49 51.15197 -0.18203 207 ft 17 kts 258°
2026-05-05 08:49 51.15177 -0.18388 203 ft 17 kts 257°
2026-05-05 08:50 51.15153 -0.18568 205 ft 17 kts 258°
2026-05-05 08:50 51.15128 -0.18748 212 ft 17 kts 258°
2026-05-05 08:50 51.15112 -0.18866 211 ft 16 kts 257°
2026-05-05 08:50 51.15088 -0.19041 213 ft 16 kts 258°
2026-05-05 08:51 51.15064 -0.19217 204 ft 17 kts 257°
2026-05-05 08:51 51.15038 -0.19402 208 ft 17 kts 257°
2026-05-05 08:51 51.15012 -0.19592 210 ft 18 kts 258°
2026-05-05 08:51 51.14983 -0.19799 210 ft 20 kts 258°
2026-05-05 08:52 51.14951 -0.20029 206 ft 22 kts 257°
2026-05-05 08:52 51.14918 -0.20270 203 ft 22 kts 258°
2026-05-05 08:52 51.14884 -0.20514 207 ft 23 kts 257°
2026-05-05 08:52 51.14850 -0.20761 206 ft 23 kts 258°
2026-05-05 08:53 51.14818 -0.21000 204 ft 21 kts 258°
2026-05-05 08:53 51.14779 -0.21209 208 ft 19 kts 256°
2026-05-05 08:53 51.14743 -0.21393 212 ft 16 kts 216°
2026-05-05 08:53 51.14647 -0.21342 203 ft 14 kts 152°
2026-05-05 08:54 51.14557 -0.21295 212 ft 13 kts 150°
2026-05-05 08:54 51.14518 -0.21177 206 ft 13 kts 77°
2026-05-05 08:54 51.14565 -0.20836 206 ft 56 kts 77°
2026-05-05 08:54 51.14680 -0.20000 208 ft 99 kts 77°
2026-05-05 08:55 51.14854 -0.18748 202 ft 131 kts 78°
2026-05-05 08:55 51.15060 -0.17254 332 ft 143 kts 75°
2026-05-05 08:55 51.15293 -0.15624 506 ft 157 kts 75°
2026-05-05 08:55 51.15527 -0.13931 939 ft 158 kts 75°
2026-05-05 08:56 51.15780 -0.12203 1247 ft 163 kts 73°
2026-05-05 08:56 51.16022 -0.10428 1547 ft 166 kts 74°
2026-05-05 08:56 51.16278 -0.08582 1719 ft 176 kts 73°
2026-05-05 08:56 51.16763 -0.06784 1948 ft 177 kts 51°
2026-05-05 08:57 51.17492 -0.05184 2165 ft 186 kts 52°
2026-05-05 08:57 51.18298 -0.03426 2327 ft 207 kts 52°
2026-05-05 08:57 51.19191 -0.01498 2567 ft 225 kts 51°
2026-05-05 08:57 51.20169 0.00554 2882 ft 239 kts 51°
2026-05-05 08:58 51.21199 0.02665 3386 ft 244 kts 52°
2026-05-05 08:58 51.22247 0.04825 3925 ft 249 kts 52°
2026-05-05 08:58 51.23312 0.07029 4488 ft 253 kts 52°
2026-05-05 08:58 51.24391 0.09273 4940 ft 257 kts 53°
2026-05-05 08:59 51.25170 0.11817 5289 ft 258 kts 75°
2026-05-05 08:59 51.25565 0.14647 5600 ft 263 kts 77°
2026-05-05 08:59 51.25949 0.17532 5993 ft 266 kts 78°
2026-05-05 08:59 51.26292 0.20457 6397 ft 270 kts 79°
2026-05-05 09:00 51.26621 0.23429 6783 ft 273 kts 79°
2026-05-05 09:00 51.26953 0.26417 7204 ft 275 kts 78°
2026-05-05 09:00 51.27288 0.29432 7641 ft 276 kts 79°
2026-05-05 09:00 51.27628 0.32461 8085 ft 278 kts 78°
2026-05-05 09:01 51.28243 0.35367 8505 ft 279 kts 54°
2026-05-05 09:01 51.29716 0.37333 8961 ft 279 kts 21°
2026-05-05 09:01 51.31624 0.37761 9439 ft 282 kts 351°
2026-05-05 09:01 51.33468 0.36683 9799 ft 286 kts 333°
2026-05-05 09:02 51.35230 0.35199 10273 ft 286 kts 333°
2026-05-05 09:02 51.37019 0.33726 10669 ft 295 kts 333°
2026-05-05 09:02 51.38878 0.32235 10873 ft 310 kts 334°
2026-05-05 09:02 51.40867 0.30722 11082 ft 323 kts 336°
2026-05-05 09:03 51.42929 0.29248 11482 ft 327 kts 337°
2026-05-05 09:03 51.45035 0.27820 11885 ft 330 kts 338°
2026-05-05 09:03 51.47167 0.26427 12324 ft 332 kts 339°
2026-05-05 09:03 51.49315 0.25022 12749 ft 334 kts 339°
2026-05-05 09:04 51.51476 0.23621 13132 ft 337 kts 339°
2026-05-05 09:04 51.53663 0.22199 13518 ft 339 kts 339°
2026-05-05 09:04 51.55856 0.20769 13861 ft 341 kts 339°
2026-05-05 09:04 51.58059 0.19328 14160 ft 344 kts 339°
2026-05-05 09:05 51.60288 0.17877 14431 ft 347 kts 339°
2026-05-05 09:05 51.62533 0.16425 14729 ft 349 kts 339°
2026-05-05 09:05 51.64667 0.14589 15004 ft 351 kts 319°
2026-05-05 09:05 51.66236 0.11576 15289 ft 352 kts 304°
2026-05-05 09:06 51.67573 0.08292 15541 ft 356 kts 303°
2026-05-05 09:06 51.68899 0.04914 15840 ft 358 kts 301°
2026-05-05 09:06 51.70199 0.01491 16142 ft 359 kts 301°
2026-05-05 09:06 51.71505 -0.01958 16468 ft 360 kts 301°
2026-05-05 09:07 51.72813 -0.05358 16785 ft 362 kts 301°
2026-05-05 09:07 51.74285 -0.08668 17076 ft 364 kts 312°
2026-05-05 09:07 51.76143 -0.11451 17352 ft 366 kts 321°
2026-05-05 09:07 51.78204 -0.13877 17655 ft 367 kts 326°
2026-05-05 09:08 51.80371 -0.16100 17882 ft 371 kts 328°
2026-05-05 09:08 51.82596 -0.18230 18174 ft 372 kts 329°
2026-05-05 09:08 51.84847 -0.20315 18431 ft 374 kts 329°
2026-05-05 09:08 51.87109 -0.22394 18728 ft 374 kts 329°
2026-05-05 09:09 51.89366 -0.24506 18936 ft 376 kts 329°
2026-05-05 09:09 51.91644 -0.26632 19208 ft 378 kts 328°
2026-05-05 09:09 51.93923 -0.28785 19419 ft 380 kts 328°
2026-05-05 09:09 51.96196 -0.30967 19713 ft 380 kts 328°
2026-05-05 09:10 51.98471 -0.33164 19951 ft 381 kts 328°
2026-05-05 09:10 52.00748 -0.35374 20192 ft 382 kts 328°
2026-05-05 09:10 52.03039 -0.37596 20410 ft 384 kts 328°
2026-05-05 09:10 52.05334 -0.39823 20658 ft 385 kts 328°
2026-05-05 09:11 52.07636 -0.42050 20918 ft 386 kts 328°
2026-05-05 09:11 52.09921 -0.44257 21140 ft 387 kts 328°
2026-05-05 09:11 52.12248 -0.46503 21364 ft 389 kts 328°
2026-05-05 09:11 52.14580 -0.48752 21587 ft 390 kts 328°
2026-05-05 09:12 52.16920 -0.51005 21808 ft 392 kts 328°
2026-05-05 09:12 52.19271 -0.53268 22025 ft 393 kts 328°
2026-05-05 09:12 52.21630 -0.55538 22237 ft 394 kts 328°
2026-05-05 09:12 52.23999 -0.57818 22450 ft 396 kts 327°
2026-05-05 09:13 52.26368 -0.60143 22655 ft 397 kts 327°
2026-05-05 09:13 52.28734 -0.62477 22873 ft 398 kts 327°
2026-05-05 09:13 52.31105 -0.64791 23181 ft 397 kts 327°
2026-05-05 09:13 52.33473 -0.67121 23393 ft 398 kts 327°
2026-05-05 09:14 52.35852 -0.69466 23583 ft 400 kts 327°
2026-05-05 09:14 52.38239 -0.71820 23751 ft 401 kts 327°
2026-05-05 09:14 52.40631 -0.74178 23934 ft 402 kts 327°
2026-05-05 09:14 52.43032 -0.76544 24105 ft 403 kts 327°
2026-05-05 09:15 52.45406 -0.78884 24278 ft 404 kts 326°
2026-05-05 09:15 52.47818 -0.81255 24459 ft 404 kts 327°
2026-05-05 09:15 52.50238 -0.83635 24561 ft 407 kts 326°
2026-05-05 09:15 52.52670 -0.86025 24753 ft 407 kts 327°
2026-05-05 09:16 52.55093 -0.88410 25050 ft 404 kts 327°
2026-05-05 09:16 52.57502 -0.90784 25270 ft 403 kts 326°
2026-05-05 09:16 52.59916 -0.93162 25485 ft 403 kts 326°
2026-05-05 09:16 52.62301 -0.95511 25877 ft 397 kts 326°
2026-05-05 09:17 52.64668 -0.97843 26112 ft 396 kts 326°
2026-05-05 09:17 52.67023 -1.00188 26324 ft 395 kts 326°
2026-05-05 09:17 52.69376 -1.02569 26485 ft 396 kts 326°
2026-05-05 09:17 52.71732 -1.04944 26675 ft 396 kts 326°
2026-05-05 09:18 52.74079 -1.07309 26860 ft 396 kts 326°
2026-05-05 09:18 52.76431 -1.09680 27055 ft 396 kts 327°
2026-05-05 09:18 52.78777 -1.12028 27310 ft 393 kts 327°
2026-05-05 09:18 52.81085 -1.14325 27508 ft 393 kts 327°
2026-05-05 09:19 52.83429 -1.16657 27691 ft 392 kts 327°
2026-05-05 09:19 52.85766 -1.18989 27870 ft 392 kts 327°
2026-05-05 09:19 52.88089 -1.21312 27980 ft 391 kts 327°
2026-05-05 09:20 52.92773 -1.26017 28016 ft 398 kts 327°
2026-05-05 09:20 52.97546 -1.30845 28016 ft 405 kts 327°
2026-05-05 09:21 53.02380 -1.35768 28035 ft 409 kts 327°
2026-05-05 09:21 53.07226 -1.40708 28028 ft 408 kts 327°
2026-05-05 09:22 53.12071 -1.45650 28016 ft 409 kts 327°
2026-05-05 09:22 53.16927 -1.50612 28016 ft 409 kts 327°
2026-05-05 09:23 53.21788 -1.55587 28013 ft 410 kts 327°
2026-05-05 09:23 53.26665 -1.60582 28023 ft 411 kts 327°
2026-05-05 09:24 53.31478 -1.65567 28027 ft 410 kts 327°
2026-05-05 09:24 53.36339 -1.70588 28027 ft 411 kts 327°
2026-05-05 09:25 53.41194 -1.75653 28025 ft 411 kts 327°
2026-05-05 09:25 53.46066 -1.80685 28033 ft 410 kts 327°
2026-05-05 09:26 53.50913 -1.85735 28033 ft 410 kts 326°
2026-05-05 09:26 53.55758 -1.90819 28023 ft 411 kts 327°
2026-05-05 09:27 53.60623 -1.95888 28031 ft 411 kts 326°
2026-05-05 09:27 53.65447 -2.00984 28028 ft 411 kts 326°
2026-05-05 09:28 53.70304 -2.06081 28036 ft 411 kts 327°
2026-05-05 09:28 53.75233 -2.10904 28040 ft 412 kts 332°
2026-05-05 09:29 53.80481 -2.14755 28036 ft 411 kts 337°
2026-05-05 09:29 53.85816 -2.18271 28026 ft 412 kts 337°
2026-05-05 09:30 53.91146 -2.21824 28026 ft 412 kts 336°
2026-05-05 09:30 53.96451 -2.25498 28028 ft 412 kts 336°
2026-05-05 09:31 54.01717 -2.29150 28037 ft 410 kts 335°
2026-05-05 09:31 54.06993 -2.32785 28027 ft 409 kts 336°
2026-05-05 09:32 54.12282 -2.36426 28030 ft 409 kts 336°
2026-05-05 09:32 54.17565 -2.40068 28030 ft 410 kts 336°
2026-05-05 09:33 54.22852 -2.43719 28043 ft 410 kts 335°
2026-05-05 09:33 54.28128 -2.47378 28025 ft 407 kts 335°
2026-05-05 09:34 54.33377 -2.51044 28025 ft 407 kts 335°
2026-05-05 09:34 54.38631 -2.54726 28029 ft 408 kts 335°
2026-05-05 09:35 54.43861 -2.58403 28029 ft 408 kts 335°
2026-05-05 09:35 54.51723 -2.64006 28031 ft 406 kts 334°
2026-05-05 09:36 54.56926 -2.67746 28030 ft 405 kts 334°
2026-05-05 09:36 54.62154 -2.71435 28028 ft 406 kts 334°
2026-05-05 09:37 54.67387 -2.75149 28029 ft 407 kts 334°
2026-05-05 09:37 54.72618 -2.78917 28051 ft 407 kts 334°
2026-05-05 09:38 54.77770 -2.82574 28031 ft 405 kts 334°
2026-05-05 09:38 54.82980 -2.86281 28029 ft 405 kts 334°
2026-05-05 09:39 54.88184 -2.90050 28028 ft 405 kts 333°
2026-05-05 09:39 54.92550 -2.93191 28025 ft 405 kts 333°
2026-05-05 09:40 54.97723 -2.96946 28042 ft 405 kts 333°
2026-05-05 09:40 55.02917 -3.00732 28021 ft 404 kts 333°
2026-05-05 09:41 55.08099 -3.04498 28017 ft 403 kts 333°
2026-05-05 09:41 55.13285 -3.08275 28020 ft 404 kts 333°
2026-05-05 09:42 55.18474 -3.12059 28024 ft 404 kts 333°
2026-05-05 09:42 55.23661 -3.15857 28043 ft 404 kts 334°
2026-05-05 09:43 55.28832 -3.19710 28027 ft 403 kts 333°
2026-05-05 09:43 55.33989 -3.23576 28025 ft 403 kts 334°
2026-05-05 09:44 55.39123 -3.27355 28023 ft 403 kts 333°
2026-05-05 09:44 55.44293 -3.31192 28034 ft 403 kts 334°
2026-05-05 09:45 55.49491 -3.34952 28045 ft 405 kts 338°
2026-05-05 09:45 55.54940 -3.37638 28034 ft 408 kts 344°
2026-05-05 09:46 55.60478 -3.39822 28038 ft 408 kts 345°
2026-05-05 09:46 55.66016 -3.42001 28046 ft 408 kts 344°
2026-05-05 09:47 55.71548 -3.44253 28042 ft 407 kts 343°
2026-05-05 09:47 55.77062 -3.46565 28041 ft 407 kts 344°
2026-05-05 09:48 55.82524 -3.48869 28044 ft 405 kts 344°
2026-05-05 09:48 55.88015 -3.51154 28045 ft 405 kts 343°
2026-05-05 09:49 55.93512 -3.53450 28043 ft 406 kts 344°
2026-05-05 09:49 55.99010 -3.55789 28045 ft 406 kts 344°
2026-05-05 09:50 56.04511 -3.58086 28043 ft 405 kts 343°
2026-05-05 09:50 56.10005 -3.60413 28047 ft 406 kts 344°
2026-05-05 09:51 56.15504 -3.62768 28045 ft 406 kts 343°
2026-05-05 09:51 56.20969 -3.65074 28040 ft 406 kts 343°
2026-05-05 09:52 56.26462 -3.67415 28071 ft 406 kts 343°
2026-05-05 09:52 56.31943 -3.69779 28051 ft 403 kts 343°
2026-05-05 09:53 56.37396 -3.72161 28047 ft 403 kts 343°
2026-05-05 09:53 56.42866 -3.74506 28045 ft 404 kts 343°
2026-05-05 09:54 56.48332 -3.76887 28052 ft 404 kts 343°
2026-05-05 09:54 56.53809 -3.79238 28058 ft 404 kts 343°
2026-05-05 09:55 56.59259 -3.81595 28053 ft 402 kts 343°
2026-05-05 09:55 56.64705 -3.83952 28061 ft 402 kts 343°
2026-05-05 09:56 56.70158 -3.86318 28066 ft 403 kts 343°
2026-05-05 09:56 56.75610 -3.88689 28069 ft 403 kts 343°
2026-05-05 09:57 56.81056 -3.91061 28089 ft 400 kts 342°
2026-05-05 09:57 56.86409 -3.93431 28075 ft 398 kts 342°